This demonstration page uses our WeatherBlox Daily Observations layout. Learn more.

Left ArrowRight Arrow

36.17497, -115.13722

Hourly Observations for December 31, 2018

Temp ( °F °C ) Dew Point ( °F °C ) Humidity (%) Winds ( mph kmh ) Pressure ( in mb ) Visibility ( mi km ) Precip ( " mm )
12:53 am 00:53 Clear 39 3.9 20 -6.7 46 46 N 7 11 29.82 1010 10 16.0934 0 0
1:53 am 01:53 Clear 40 4.4 20 -6.7 45 45 N 12 19 29.83 1010 10 16.0934 0 0
2:53 am 02:53 Clear 42 5.6 20 -6.7 41 41 E 6 9 29.87 1012 10 16.0934 0 0
3:53 am 03:53 Cloudy 41 5 21 -6.1 45 45 SSW 5 7 29.87 1011 10 16.0934 0 0
4:53 am 04:53 Cloudy 43 6.1 24 -4.4 47 47 VRB 3 6 29.88 1012 10 16.0934 0 0
5:53 am 05:53 Cloudy 42 5.6 25 -3.9 51 51 SE 8 13 29.9 1013 10 16.0934 0 0
6:53 am 06:53 Cloudy 43 6.1 23 -5 45 45 N 3 6 29.96 1014 10 16.0934 0 0
7:53 am 07:53 Cloudy 44 6.7 16 -8.9 32 32 NNE 9 15 29.98 1015 10 16.0934 0 0
8:53 am 08:53 Mostly Cloudy 44 6.7 14 -10 30 30 NE 10 17 30 1016 10 16.0934 0 0
9:53 am 09:53 Sunny 45 7.2 13 -10.6 27 27 NNW 16 26 30 1016 10 16.0934 0 0
10:53 am 10:53 Mostly Cloudy 46 7.8 11 -11.7 24 24 NNW 13 20 29.98 1015 10 16.0934 0 0
11:53 am 11:53 Cloudy 47 8.3 11 -11.7 23 23 NNW 13 20 29.95 1014 10 16.0934 0 0
12:53 pm 12:53 Cloudy 47 8.3 8 -13.3 20 20 VRB 6 9 29.94 1014 10 16.0934 0 0
1:53 pm 13:53 Cloudy 48 8.9 7 -13.9 19 19 NNW 17 28 29.93 1014 10 16.0934 0 0
2:53 pm 14:53 Cloudy 50 10 6 -14.4 17 17 N 17 28 29.93 1014 10 16.0934 0 0
3:53 pm 15:53 Cloudy 49 9.4 7 -13.9 18 18 NNE 7 11 29.97 1015 10 16.0934 0 0
4:53 pm 16:53 Cloudy 45 7.2 10 -12.2 24 24 NE 15 24 29.99 1016 10 16.0934 0 0
5:53 pm 17:53 Mostly Cloudy 45 7.2 8 -13.3 22 22 N 8 13 30.02 1017 10 16.0934 0 0
6:53 pm 18:53 Mostly Clear 43 6.1 7 -13.9 22 22 N 6 9 30.03 1017 10 16.0934 0 0
7:53 pm 19:53 Mostly Cloudy 40 4.4 7 -13.9 25 25 NE 6 9 30.05 1018 10 16.0934 0 0
8:53 pm 20:53 Clear 39 3.9 7 -13.9 26 26 N 5 7 30.06 1018 10 16.0934 0 0
9:53 pm 21:53 Clear 40 4.4 10 -12.2 29 29 NNW 22 35 30.07 1018 10 16.0934 0 0
10:53 pm 22:53 Clear 38 3.3 8 -13.3 29 29 NNW 18 30 30.1 1019 10 16.0934 0 0
11:53 pm 23:53 Clear 37 2.8 8 -13.3 30 30 NNW 21 33 30.13 1020 10 16.0934 0 0

Powered by AerisWeather